Flag for Australia Weather past 2 weeks in Uluru, Northern Territory, Australia

Now
82 °F

Clear.


Feels Like: 80 °F
Forecast: 68 / 89 °F
Wind: 12 mph from South

Location: Ayers Rock

Current Time: Apr 1, 2015 at 11:47:30 PM

Latest Report: Apr 1, 2015 at 10:30 PM


Visibility: N/A

Pressure: 30.07 "Hg

Humidity: 25%

Dew point: 43 °F

Location of UluruLocation

Historic Weather in Uluru — Graph

°F

Uluru temperature yesterday

Maximum temperature yesterday: 91 °F (at 2:30 PM)
Minimum temperature yesterday: 63 °F (at 6:30 AM)
Average temperature yesterday: 78 °F

Past Weeks' High & Low Weather Summary

 TemperatureHumidityPressure
High108 °F (Mar 19, 3:30 PM)69% (Mar 23, 7:30 AM)30.30 "Hg (Mar 23, 7:30 AM)
Low61 °F (Mar 30, 4:30 AM)9% (Mar 19, 12:30 PM)29.71 "Hg (Mar 18, 4:30 PM)
Average80 °F29%30.07 "Hg
* Reported Mar 17 10:30 PM — Apr 1 10:30 PM, Uluru, Weather by CustomWeather, © 2015

Note: Actual official high and low records may vary slightly from our data, if they occured in-between our weather recording intervals... More about our weather records

Advertising

Uluru weather history for previous 24 hours

 ConditionsComfort  
Time TempWeatherWind HumidityBarometerVisibility
10:30 PM
Wed, Apr 1
82 °FClear.12 mph25%30.07 "HgN/A
9:30 PM86 °FPassing clouds.9 mph15%30.04 "HgN/A
8:30 PM84 °FOvercast.No wind18%30.01 "HgN/A
7:30 PM88 °FPassing clouds.5 mph16%29.98 "HgN/A
6:30 PM93 °FClear.10 mph13%29.98 "HgN/A
5:30 PM93 °FSunny.8 mph13%29.95 "HgN/A
4:30 PM95 °FSunny.13 mph11%29.95 "HgN/A
3:30 PM95 °FSunny.8 mph11%29.95 "HgN/A
2:30 PM93 °FSunny.9 mph12%29.98 "HgN/A
1:30 PM93 °FSunny.8 mph12%30.01 "HgN/A
12:30 PM91 °FSunny.10 mph14%30.04 "HgN/A
11:30 AM88 °FSunny.10 mph16%30.07 "HgN/A
10:30 AM84 °FSunny.10 mph19%30.09 "HgN/A
9:30 AM81 °FSunny.14 mph21%30.09 "HgN/A
8:30 AM75 °FSunny.10 mph25%30.07 "HgN/A
7:30 AM66 °FSunny.7 mph32%30.07 "HgN/A
6:30 AM63 °FSunny.6 mph37%30.07 "HgN/A
5:30 AM63 °FClear.6 mph34%30.07 "HgN/A
4:30 AM63 °FClear.3 mph32%30.04 "HgN/A
3:30 AM66 °FClear.6 mph30%30.04 "HgN/A
2:30 AM68 °FClear.7 mph28%30.04 "HgN/A
1:30 AM70 °FClear.7 mph25%30.07 "HgN/A
12:30 AM70 °FClear.6 mph25%30.07 "HgN/A
11:30 PM
Tue, Mar 31
70 °FClear.3 mph27%30.07 "HgN/A
Weather by CustomWeather, © 2015

See weather overviewHow to use our weather pages